Location: Bothwell
(42.3833°S, 147.0000°E)
Time: 03:15:07
(UTC+11:00)

Gurwin Techsat 1B - Pass Details

Date: 30 September 2022
Orbit: 811 x 813 km, 98.8° (Epoch: 29 November)

Event Time Altitude Azimuth Distance (km) Brightness Sun altitude
Exits shadow 00:58:43 16° 161° (SSE) 2,043 11.2 -43.3°
Drops below altitude 10° 01:00:02 10° 171° (S) 2,434 11.7 -43.2°
Sets 01:02:44 0° 182° (S) 3,374 12.5 -43.0°
